Dauntless Aviation
Greetings, Guest! To participate, [sign up for a free account] or [log in]
Airports North America United States Colorado
98CO

NCMC HELIPORT

GREELEY, CO, USA

Airport Info

Location

Latitude / Longitude: 40°24'53"N / 104°42'28"W
  40°24.9'N / 104°42.4667'W
  40.4150 / -104.7078
Elevation: 4882 ft. (estimated)
Variation: 12E (1985)
From city: 00 miles N of GREELEY, CO

Operations

Facility use: Private
Sectional chart: DENVER
Control tower: no
Boundary ARTCC: DENVER
FSS: DENVER [1-800-WX-BRIEF]
Segmented circle: no

Communications

Nearby radio navigation aids

VOR radial/distance VOR name Freq Var
GLL 233oT/8.9 GILL VORTAC 114.20 13E
DVV 353oT/31.5 MILE HIGH VORTAC 114.70 11E
BJC 33oT/36.1 JEFFCO VOR/DME 115.40 11E
DEN 357oT/36.2 DENVER VOR/DME 117.90 11E
 
NDB name Hdg/Dist Freq Var ID

Services

Runway Information

Helipad H1

Dimensions: 40 x 40 ft.
Surface: PORTLAND CEMENT CONCRETE,NO SPECIAL SURFACE TREATMENT
 

Additional Remarks

Instrument Procedures

No published instrument procedures available
Topographic chart at:
Satellite photo at:
Airport distance calculator
From:
Weather Reports

METAR

KGXY
4.2nm NE
KGXY 260835Z 35004KT 10SM BKN080 09/07 A3000 RMK AO1
KFNL
14.3nm W
KFNL 260835Z AUTO 00000KT 10SM CLR 08/06 A3001 RMK AO1
KLMO
25.8nm SW
KLMO 260835Z AUTO 32003KT 10SM SCT075 SCT100 08/06 A3002 RMK AO2 T00800064
KEIK
28.6nm S
KEIK 260834Z AUTO 00000KT 10SM CLR 07/07 A3000 RMK AO2 T00730067
KBDU
33.3nm SW
KBDU 260838Z AUTO 00000KT 10SM CLR 08/07 A3000 RMK AO2
KBJC
35.3nm S
KBJC 260835Z AUTO 00000KT 10SM CLR 08/06 A3002 RMK AO2

TAF

KDEN
35.0nm SE
KDEN 260531Z 2606/2712 22009KT P6SM FEW060 SCT140 BKN200 FM261300 VRB05KT P6SM FEW120 SCT220 FM262100 11008KT P6SM SCT060 BKN120 PROB30 2622/2702 -TSRA BKN060CB FM270200 16009KT P6SM FEW060 BKN110 FM270500 20009KT P6SM SCT110
KBJC
35.3nm S
KBJC 260531Z 2606/2706 23005KT P6SM FEW110 BKN200 FM260900 29007KT P6SM SCT200 FM261400 VRB05KT P6SM SCT220 FM262100 08008KT P6SM SCT060 BKN120 PROB30 2621/2701 -TSRA BKN060CB FM270200 16005KT P6SM FEW060 BKN110 FM270500 23006KT P6SM SCT110
Safelog

 

Dauntless Aviation

© 2007-2015 Dauntless Aviation, all rights reserved
Information provided via PilotNav comes from a variety of official and unofficial data sources. As errors are possible, do not use PilotNav for primary flight planning purposes. Verify any information that you receive via PilotNav with current and canonical charts and other official documents. The material in this database is subject to database copyrights held by Dauntless Aviation and may not be copied without the express permission of Dauntless Aviation - licenses for use of part of all of this data are available for purchase; enquire via the Dauntless Aviation helpdesk. A number of mechanisms and markers exist in the database to protect against and identify infringement / copyright. Automated queries against this website are stictly prohibited, and all activity is logged and analyzed.